Kodiak, AK

10:49 AM AKDT on May 25, 2017 (GMT -0800)
Kodiak

Weather History for PADQ - July, 2012

Change the Weather History Date:

Wednesday, July 18, 2012

  Actual Average Record
Temperature  
Mean Temperature 52 °F 55 °F  
Max Temperature 57 °F 60 °F 77 °F (1977)
Min Temperature 46 °F 50 °F 38 °F (1927)
Degree Days  
Heating Degree Days 13 10  
Month to date heating degree days 253 202  
Since 1 June heating degree days 682 663  
Since 1 July heating degree days 253 202  
Cooling Degree Days 0    
Month to date cooling degree days 0  
Year to date cooling degree days 0  
Since 1 June cooling degree days 0  
Growing Degree Days 2 (Base 50)    
Moisture  
Dew Point 46 °F    
Average Humidity 0    
Maximum Humidity 0    
Minimum Humidity 0    
Precipitation  
Precipitation T in 0.15 in 3.01 in (1971)
Month to date precipitation 3.02 2.94  
Year to date precipitation 29.46 40.24  
Snow  
Snow 0.00 in 0.00 in 0.00 in (2016)
Month to date snowfall 0.0 0.0  
Since 1 June snowfall 0.0 0.0  
Since 1 July snowfall 0.0 0.0  
Snow Depth 0.00 in    
Sea Level Pressure  
Sea Level Pressure 29.97 in    
Wind  
Wind Speed 6 mph (ENE)    
Max Wind Speed 17 mph    
Max Gust Speed 20 mph    
Visibility 10 miles    
Events      
T = Trace of Precipitation, MM = Missing Value Source: NWS Daily Summary

Daily Weather History Graph

Daily Weather History Graph

Search for Another Location

Airport or City:

Trip Planner

Search our weather history database for the weather conditions in past years. The results will help you decide how hot, cold, wet, or windy it might be!

Date:

Astronomy

Jul. 18, 2012 Rise Set
Actual Time 5:38 AM AKDT 10:52 PM AKDT
Civil Twilight 4:38 AM AKDT 11:52 PM AKDT
Nautical Twilight 2:48 AM AKDT 1:43 AM AKDT
Astronomical Twilight Sun does not set Sun does not set
Moon 5:35 AM AKDT (7/18) 10:07 PM AKDT (7/18)
Length of Visible Light 19h 14m
Length of Day
17h 13m
Waning Crescent, 0% of the Moon is Illuminated
Jul 18
Waning Crescent
Jul 18
New
Jul 26
First Quarter
Aug 1
Full
Aug 9
Last Quarter

Hourly Weather History & Observations

Time (AKDT) Temp. Dew Point Humidity Pressure Visibility Wind Dir Wind Speed Gust Speed Precip Events Conditions
12:53 AM 48.9 °F 45.0 °F 86% 29.98 in 10.0 mi East 3.5 mph - N/A   Overcast
1:53 AM 48.9 °F 45.0 °F 86% 29.98 in 10.0 mi East 3.5 mph - N/A   Mostly Cloudy
2:53 AM 48.9 °F 46.0 °F 90% 29.97 in 10.0 mi Calm Calm - N/A   Overcast
3:53 AM 50.0 °F 45.0 °F 83% 29.96 in 10.0 mi Calm Calm - N/A   Overcast
4:08 AM 50.0 °F 44.6 °F 82% 29.96 in 10.0 mi Calm Calm - N/A   Overcast
4:53 AM 48.9 °F 46.0 °F 90% 29.95 in 10.0 mi North 4.6 mph - N/A   Overcast
5:15 AM 48.2 °F 46.4 °F 93% 29.94 in 10.0 mi Calm Calm - N/A   Overcast
5:53 AM 48.9 °F 45.0 °F 86% 29.94 in 10.0 mi Calm Calm - 0.00 in   Mostly Cloudy
6:20 AM 48.2 °F 44.6 °F 87% 29.93 in 10.0 mi Calm Calm - N/A   Overcast
6:23 AM 50.0 °F 44.6 °F 82% 29.93 in 10.0 mi Calm Calm - N/A   Mostly Cloudy
6:53 AM 50.0 °F 45.0 °F 83% 29.94 in 10.0 mi NNE 3.5 mph - N/A   Mostly Cloudy
7:53 AM 50.0 °F 46.0 °F 86% 29.93 in 10.0 mi North 5.8 mph - N/A   Mostly Cloudy
8:53 AM 50.0 °F 46.0 °F 86% 29.93 in 10.0 mi North 8.1 mph - N/A   Overcast
9:53 AM 51.1 °F 46.0 °F 83% 29.94 in 10.0 mi NNE 10.4 mph - N/A   Overcast
10:53 AM 51.1 °F 45.0 °F 80% 29.94 in 10.0 mi NNE 8.1 mph - N/A   Overcast
11:53 AM 53.1 °F 45.0 °F 74% 29.96 in 10.0 mi NE 8.1 mph - N/A   Mostly Cloudy
12:23 PM 53.6 °F 44.6 °F 72% 29.96 in 10.0 mi NNE 13.8 mph - N/A   Mostly Cloudy
12:53 PM 54.0 °F 45.0 °F 72% 29.96 in 10.0 mi NE 12.7 mph - N/A   Mostly Cloudy
1:53 PM 57.0 °F 45.0 °F 64% 29.97 in 10.0 mi ENE 11.5 mph - N/A   Scattered Clouds
2:53 PM 57.0 °F 46.0 °F 67% 29.98 in 10.0 mi ENE 12.7 mph - N/A   Scattered Clouds
3:53 PM 55.9 °F 46.0 °F 69% 30.00 in 10.0 mi ENE 12.7 mph - N/A   Scattered Clouds
4:53 PM 55.0 °F 46.0 °F 72% 30.00 in 10.0 mi SE 8.1 mph - N/A   Scattered Clouds
5:53 PM 55.9 °F 46.9 °F 72% 29.99 in 10.0 mi East 6.9 mph - N/A   Scattered Clouds
6:53 PM 54.0 °F 46.0 °F 75% 29.99 in 10.0 mi ESE 8.1 mph - N/A   Scattered Clouds
7:53 PM 53.1 °F 46.9 °F 80% 30.00 in 10.0 mi ESE 5.8 mph - N/A   Scattered Clouds
8:53 PM 52.0 °F 46.9 °F 83% 30.01 in 10.0 mi ESE 5.8 mph - N/A   Scattered Clouds
9:53 PM 52.0 °F 46.0 °F 80% 30.03 in 10.0 mi Calm Calm - N/A   Clear
10:53 PM 50.0 °F 46.0 °F 86% 30.05 in 10.0 mi Calm Calm - N/A   Clear
11:53 PM 46.9 °F 44.1 °F 90% 30.05 in 10.0 mi West 3.5 mph - N/A   Partly Cloudy